Location: Argelès
(43.0167°N, 0.1000°W)
Time: 14:08:44
(UTC+00:00)

Daily predictions for brighter satellites

Satellite Brightness Start Highest point End
(mag) Time Altitude Azimuth Time Altitude Azimuth Time Altitude Azimuth
SJ-7 4.4 16:50:44 10° SSE 16:54:36 57° ENE 16:58:32 10° N
NOSS 2-1 (E) 3.9 16:51:41 10° NNW 16:55:56 67° NE 17:01:57 10° SE
[s.n.58423] 3.5 16:53:58 10° SW 16:56:24 35° SSE 16:58:51 10° E
Cosmos 2151 3.6 16:55:54 10° N 16:59:47 33° ENE 17:03:39 10° SE
Cosmos 2285 Rocket 4.5 16:53:51 10° NNW 17:00:16 70° WSW 17:06:39 10° S
[s.n.58417] 3.5 16:57:55 10° SW 17:00:26 38° SSE 17:02:57 10° E
Cosmos 2082 4.4 16:55:33 10° SSE 17:00:30 33° ESE 17:05:28 10° NE
Cosmos 1634 Rocket 4.0 16:54:30 10° N 17:00:49 71° E 17:07:06 10° SSE
SAR-Lupe-2 3.5 16:57:59 10° SSE 17:01:33 83° ENE 17:05:09 10° NNW
[s.n.58408] 3.4 16:59:56 10° SW 17:02:21 37° SSE 17:04:46 10° E
ATLAS 2AS CENTAUR R/B 4.4 17:00:48 10° NNW 17:04:34 15° NNE 17:08:14 10° NE
CZ-4B R/B 4.3 17:00:37 10° ESE 17:04:56 28° ENE 17:09:11 10° N
[s.n.58424] 3.3 17:03:04 10° SW 17:05:35 40° SSE 17:08:07 10° E
[s.n.58422] 3.3 17:04:29 10° SW 17:07:05 42° SSE 17:09:42 10° E
[s.n.58421] 3.3 17:04:49 10° SW 17:07:25 42° SSE 17:10:02 10° E
[s.n.58420] 3.3 17:04:57 10° SW 17:07:33 42° SSE 17:10:10 10° E
[s.n.58419] 3.3 17:05:07 10° SW 17:07:42 42° SSE 17:10:19 10° E
[s.n.58418] 3.3 17:05:15 10° SW 17:07:51 42° SSE 17:10:27 10° E
[s.n.58416] 3.3 17:05:34 10° SW 17:08:10 42° SSE 17:10:46 10° E
[s.n.58414] 3.3 17:05:49 10° SW 17:08:25 42° SSE 17:10:59 10° E
[s.n.58415] 3.3 17:06:13 10° SW 17:08:49 43° SSE 17:11:23 10° E
[s.n.58412] 3.3 17:06:35 10° SW 17:09:11 43° SSE 17:11:44 11° E
[s.n.58409] 3.3 17:06:45 10° SW 17:09:21 43° SSE 17:11:54 11° E
Cosmos 2292 Rocket 4.4 17:04:23 10° S 17:09:26 62° E 17:16:06 10° NNE
[s.n.58411] 3.3 17:07:00 10° SW 17:09:36 43° SSE 17:12:08 11° E
[s.n.58410] 3.3 17:07:08 10° SW 17:09:45 43° SSE 17:12:16 11° E
Cosmos 2237 Rocket 3.2 17:04:27 10° NNW 17:09:55 53° WSW 17:15:21 10° S
[s.n.58407] 3.2 17:07:31 10° SW 17:10:08 44° SSE 17:12:38 11° E
[s.n.58406] 3.2 17:07:39 10° SW 17:10:15 44° SSE 17:12:46 11° E
[s.n.58405] 3.2 17:08:01 10° SW 17:10:38 44° SSE 17:13:07 11° E
[s.n.58404] 3.2 17:08:15 10° SW 17:10:51 44° SSE 17:13:20 11° E
[s.n.58403] 3.2 17:08:22 10° SW 17:10:59 44° SSE 17:13:27 11° E
[s.n.58402] 3.2 17:08:35 10° SW 17:11:13 44° SSE 17:13:41 11° E
Cosmos 1607 4.1 17:05:21 10° SSW 17:11:32 63° ESE 17:17:52 10° NE
SMAP 3.0 17:11:55 10° SSE 17:16:32 69° ENE 17:21:10 10° N
Cosmos 1269 Rocket 4.3 17:11:31 10° N 17:16:37 46° ENE 17:21:40 10° SE
DMSP B5D2-2 4.1 17:14:45 10° NNE 17:19:59 89° WNW 17:25:12 10° SSW
AQUARIUS 4.2 17:16:18 10° SSE 17:20:40 57° ENE 17:25:04 10° N
Cosmos 1953 Rocket 3.6 17:17:02 10° N 17:21:31 88° ENE 17:25:57 10° S
Helios 1B rocket 3.6 17:19:42 10° S 17:23:29 45° W 17:27:16 10° NNW
CZ-2C R/B 2.7 17:22:19 10° SSW 17:23:37 13° S 17:24:54 10° SE
Cosmos 1606 4.5 17:22:31 10° SW 17:25:46 31° WNW 17:29:04 10° NNW
CZ-4B R/B 3.5 17:22:18 10° SSE 17:25:52 71° ENE 17:29:27 10° N
Cosmos 1076 Rocket 3.6 17:22:19 10° N 17:26:36 54° E 17:30:52 10° SSE
Cosmos 405 Rocket 2.7 17:24:11 10° S 17:27:55 84° W 17:31:46 10° N
Cosmos 1666 3.2 17:24:58 10° NNE 17:28:11 31° ENE 17:31:22 10° SE
Lacrosse 4 Rocket 3.2 17:28:45 10° N 17:31:06 14° NE 17:31:19 14° NE
Cosmos 2279 Rocket 3.9 17:25:26 10° N 17:31:42 80° E 17:37:55 10° S
Cosmos 1437 Rocket 2.5 17:31:23 10° N 17:35:05 87° E 17:38:50 10° S
Cosmos 614 Rocket 4.0 17:30:49 10° NNW 17:36:03 89° ENE 17:41:14 10° SSE
Cosmos 2227 Rocket 3.1 17:32:45 10° SW 17:38:13 49° WNW 17:43:42 10° NNE
Cosmos 2058 Rocket 3.1 17:33:51 10° S 17:38:19 84° W 17:42:46 10° N
Cosmos 2263 Rocket 2.2 17:33:42 10° S 17:39:08 60° ESE 17:44:31 11° NNE
COSMO-SKYMED 1 3.1 17:35:27 10° NNE 17:39:28 36° E 17:43:28 10° SSE
USA 308 2.3 17:39:25 10° NW 17:40:41 24° N 17:40:41 24° N
NOSS 8 (A) 4.5 17:37:23 10° SSW 17:41:33 72° SE 17:43:32 22° NE
NOSS 3-4 (A) 3.9 17:34:30 10° NW 17:41:34 80° NE 17:49:40 10° SE
NOSS 3-4 (C) 3.9 17:34:39 10° NW 17:41:40 81° NE 17:49:40 10° SE
Cosmos 1544 3.0 17:38:41 10° NNW 17:41:56 72° W 17:45:10 10° S
Nadezhda 4 Rocket 4.0 17:43:45 10° S 17:49:46 57° E 17:55:45 10° NNE
SL-8 R/B 4.2 17:45:38 10° WNW 17:50:14 45° N 17:52:37 25° ENE
USA 234 3.5 17:45:17 14° NE 17:51:00 65° NW 17:57:28 10° WSW
Meteor 1-31 Rocket 4.0 17:55:09 10° S 17:58:39 42° W 18:02:12 10° NNW
Cosmos 1500 3.3 17:55:41 10° NNW 17:59:12 66° W 18:02:40 10° S
CBERS 1 LM4 rocket 4.3 17:54:59 10° SSE 17:59:50 69° ENE 18:04:35 10° N
Cosmos 2084 Rocket 4.1 17:58:27 10° NW 18:02:08 48° WSW 18:05:50 10° SSE
Cosmos 1782 4.5 17:58:56 10° SE 18:00:17 18° SE 18:00:17 18° SE
SL-16 R/B 2.6 17:57:03 10° NNW 18:02:41 65° WSW 18:08:16 10° S
Cosmos 1812 2.5 18:03:01 10° S 18:06:38 59° E 18:07:53 36° NNE
ISS -2.8 18:04:47 10° NW 18:07:40 34° NNE 18:07:40 34° NNE
BREEZE-M DEB (TANK) 2.7 18:06:17 10° WNW 18:07:42 26° NNW 18:07:42 26° NNW
SL-08 R/B 3.3 18:05:50 22° NNE 18:08:35 53° E 18:13:05 10° S
Meteor 1-22 4.5 18:05:31 10° N 18:10:54 73° E 18:16:22 10° SSE
NOAA 6 3.9 18:07:06 10° SSE 18:12:14 86° ENE 18:17:24 10° NNW
Tiangong -0.5 18:09:30 10° W 18:12:18 30° SSW 18:13:24 23° SSE
USA 276 3.1 18:10:40 10° SW 18:12:08 28° SSW 18:12:08 28° SSW
Cosmos 1140 Rocket 3.6 18:08:09 10° N 18:13:10 47° ENE 18:15:57 24° SE
Helios 1A 3.6 18:11:45 10° N 18:15:48 54° WNW 18:19:51 10° SSW
Cosmos-2242 2.9 18:12:43 10° S 18:17:03 87° E 18:20:24 17° N
Radarsat Rocket 3.8 18:12:15 10° SSE 18:18:04 89° E 18:24:02 10° NNW
USA 305 4.2 18:15:33 10° NNW 18:17:57 22° N 18:17:57 22° N
Cosmos 1943 3.2 18:13:16 10° NNW 18:18:47 53° ENE 18:21:52 25° SE
YAOGAN 1 4.3 18:24:38 19° N 18:24:38 19° N 18:26:00 10° N
Meteor 1-25 Rocket 4.1 18:18:46 10° N 18:24:27 68° ENE 18:30:00 10° SSE
SKYMED 2 3.8 18:23:55 14° N 18:27:36 68° WNW 18:31:54 10° SSW
Cosmos 44 3.6 18:22:52 10° NW 18:28:15 77° WSW 18:33:07 11° SSE
Lacrosse 5 3.4 18:24:20 10° S 18:26:56 21° SE 18:26:56 21° SE
[s.n.58413] 4.5 18:27:03 10° W 18:28:31 29° W 18:28:31 29° W
H-2A R/B 3.8 18:27:24 10° SW 18:30:33 23° S 18:33:56 16° SE
ATLAS CENTAUR R/B 3.0 18:26:31 10° NW 18:31:17 63° NE 18:34:59 33° ESE
Cosmos 2251 Rocket 3.6 18:26:22 10° NNW 18:31:37 54° ENE 18:32:10 52° E
Cosmos 2344 3.4 18:24:00 10° SSW 18:31:45 72° ESE 18:35:19 33° NE
USA 307 4.2 18:32:35 10° NW 18:34:43 25° NNW 18:34:43 25° NNW
Cosmos 1818 3.7 18:36:25 10° SSW 18:41:31 55° SE 18:41:31 55° SE
CZ-4B R/B 4.3 18:43:50 31° N 18:43:50 31° N 18:46:06 10° N
Cosmos 407 Rocket 3.5 18:39:15 10° NNW 18:43:41 57° NNE 18:43:41 57° NNE
Cosmos 1812 Rocket 4.4 18:48:54 10° SSW 18:53:04 48° WNW 18:54:52 29° NNW
ADEOS 4.0 18:48:51 10° S 18:53:59 60° WSW 18:59:10 10° NNW
Meteor 2-17 Rocket 4.4 18:48:55 10° S 18:55:05 87° W 18:59:44 19° N
ATLAS 2AS CENTAUR R/B 3.5 18:51:35 10° NNW 18:56:37 32° NNE 18:56:37 32° NNE
Lacrosse 4 Rocket 3.4 19:05:45 10° NNW 19:07:24 22° NNW 19:07:24 22° NNW
SME Rocket 4.1 19:11:05 39° S 19:13:06 71° WSW 19:20:24 10° NNW
Cosmos 2026 Rocket 4.5 19:12:35 10° SSW 19:18:41 58° W 19:24:55 10° N
Cosmos 2263 Rocket 4.2 19:19:08 10° WSW 19:23:28 23° NW 19:26:13 16° NNW
Cosmos 1844 Rocket 3.8 19:19:33 10° SSW 19:22:36 34° SSW 19:22:36 34° SSW
USA 234 4.4 19:32:38 30° N 19:33:18 31° NNW 19:38:52 10° WNW
Cosmos 1603 4.5 19:27:47 10° NNW 19:32:13 48° WNW 19:32:13 48° WNW
